owner,sensor,date,latitude,longitude,vertical_datum,sea_water_practical_salinity,qcFlag 
DISL,ioos:station:DISL:KATA:1,2019-02-01T00:30:00Z,30.2583,-88.2131,4.291,20.55,1111122 
DISL,ioos:station:DISL:KATA:1,2019-02-01T01:30:00Z,30.2583,-88.2131,4.29,20.73,1111122 
DISL,ioos:station:DISL:KATA:1,2019-02-01T02:30:00Z,30.2583,-88.2131,4.284,20.53,1111122 
DISL,ioos:station:DISL:KATA:1,2019-02-01T03:30:00Z,30.2583,-88.2131,4.243,20.49,1111122 
DISL,ioos:station:DISL:KATA:1,2019-02-01T04:30:00Z,30.2583,-88.2131,4.193,20.41,1111122 
DISL,ioos:station:DISL:KATA:1,2019-02-01T05:30:00Z,30.2583,-88.2131,4.119,20.41,1111122 
DISL,ioos:station:DISL:KATA:1,2019-02-01T06:30:00Z,30.2583,-88.2131,4.039,20.46,1111122 
DISL,ioos:station:DISL:KATA:1,2019-02-01T07:30:00Z,30.2583,-88.2131,3.938,20.45,1111122 
DISL,ioos:station:DISL:KATA:1,2019-02-01T08:30:00Z,30.2583,-88.2131,3.851,20.41,1111122 
DISL,ioos:station:DISL:KATA:1,2019-02-01T09:30:00Z,30.2583,-88.2131,3.787,20.38,1111122 
DISL,ioos:station:DISL:KATA:1,2019-02-01T10:30:00Z,30.2583,-88.2131,3.734,20.28,1111122 
DISL,ioos:station:DISL:KATA:1,2019-02-01T11:30:00Z,30.2583,-88.2131,3.696,20.11,1111122 
DISL,ioos:station:DISL:KATA:1,2019-02-01T12:30:00Z,30.2583,-88.2131,3.719,20.24,1111122 
DISL,ioos:station:DISL:KATA:1,2019-02-01T13:30:00Z,30.2583,-88.2131,3.776,20.29,1111122 
DISL,ioos:station:DISL:KATA:1,2019-02-01T14:30:00Z,30.2583,-88.2131,3.84,20.06,1111122 
DISL,ioos:station:DISL:KATA:1,2019-02-01T15:30:00Z,30.2583,-88.2131,3.883,19.98,1111122 
DISL,ioos:station:DISL:KATA:1,2019-02-01T16:30:00Z,30.2583,-88.2131,3.93,19.92,1111122 
DISL,ioos:station:DISL:KATA:1,2019-02-01T17:30:00Z,30.2583,-88.2131,4.033,19.7,1111122 
DISL,ioos:station:DISL:KATA:1,2019-02-01T18:30:00Z,30.2583,-88.2131,4.147,19.51,1111122 
DISL,ioos:station:DISL:KATA:1,2019-02-01T19:30:00Z,30.2583,-88.2131,4.197,19.46,1111122 
DISL,ioos:station:DISL:KATA:1,2019-02-01T20:30:00Z,30.2583,-88.2131,4.249,19.28,1111122 
DISL,ioos:station:DISL:KATA:1,2019-02-01T21:30:00Z,30.2583,-88.2131,4.269,19.1,1111122 
DISL,ioos:station:DISL:KATA:1,2019-02-01T22:30:00Z,30.2583,-88.2131,4.314,19.11,1111122 
DISL,ioos:station:DISL:KATA:1,2019-02-01T23:30:00Z,30.2583,-88.2131,4.386,19.11,1111122 
DISL,ioos:station:DISL:KATA:1,2019-02-02T00:30:00Z,30.2583,-88.2131,4.427,18.99,1111122 
DISL,ioos:station:DISL:KATA:1,2019-02-02T01:30:00Z,30.2583,-88.2131,4.446,18.92,1111122 
DISL,ioos:station:DISL:KATA:1,2019-02-02T02:30:00Z,30.2583,-88.2131,4.401,19.02,1111122 
DISL,ioos:station:DISL:KATA:1,2019-02-02T03:30:00Z,30.2583,-88.2131,4.381,19.06,1111122 
DISL,ioos:station:DISL:KATA:1,2019-02-02T04:30:00Z,30.2583,-88.2131,4.342,18.86,1111122 
DISL,ioos:station:DISL:KATA:1,2019-02-02T05:30:00Z,30.2583,-88.2131,4.277,18.93,1111122 
DISL,ioos:station:DISL:KATA:1,2019-02-02T06:30:00Z,30.2583,-88.2131,4.196,18.81,1111122 
DISL,ioos:station:DISL:KATA:1,2019-02-02T07:30:00Z,30.2583,-88.2131,4.084,18.85,1111122 
DISL,ioos:station:DISL:KATA:1,2019-02-02T08:30:00Z,30.2583,-88.2131,3.984,18.81,1111122 
DISL,ioos:station:DISL:KATA:1,2019-02-02T09:30:00Z,30.2583,-88.2131,3.882,18.77,1111122 
DISL,ioos:station:DISL:KATA:1,2019-02-02T10:30:00Z,30.2583,-88.2131,3.808,18.71,1111122 
DISL,ioos:station:DISL:KATA:1,2019-02-02T11:30:00Z,30.2583,-88.2131,3.778,18.7,1111122 
DISL,ioos:station:DISL:KATA:1,2019-02-02T12:30:00Z,30.2583,-88.2131,3.791,18.65,1111122 
DISL,ioos:station:DISL:KATA:1,2019-02-02T13:30:00Z,30.2583,-88.2131,3.827,18.63,1111122 
DISL,ioos:station:DISL:KATA:1,2019-02-02T14:30:00Z,30.2583,-88.2131,3.874,18.48,1111122 
DISL,ioos:station:DISL:KATA:1,2019-02-02T15:30:00Z,30.2583,-88.2131,3.913,18.44,1111122 
DISL,ioos:station:DISL:KATA:1,2019-02-02T16:30:00Z,30.2583,-88.2131,3.94,18.58,1111122 
DISL,ioos:station:DISL:KATA:1,2019-02-02T17:30:00Z,30.2583,-88.2131,3.989,18.35,1111122 
DISL,ioos:station:DISL:KATA:1,2019-02-02T18:30:00Z,30.2583,-88.2131,4.042,18.25,1111122 
DISL,ioos:station:DISL:KATA:1,2019-02-02T19:30:00Z,30.2583,-88.2131,4.095,18.03,1111122 
DISL,ioos:station:DISL:KATA:1,2019-02-02T20:30:00Z,30.2583,-88.2131,4.157,17.78,1111122 
DISL,ioos:station:DISL:KATA:1,2019-02-02T21:30:00Z,30.2583,-88.2131,4.22,17.57,1111122 
DISL,ioos:station:DISL:KATA:1,2019-02-02T22:30:00Z,30.2583,-88.2131,4.292,17.33,1111122 
DISL,ioos:station:DISL:KATA:1,2019-02-02T23:30:00Z,30.2583,-88.2131,4.339,17.08,1111122 
DISL,ioos:station:DISL:KATA:1,2019-02-03T00:30:00Z,30.2583,-88.2131,4.393,16.85,1111122 
DISL,ioos:station:DISL:KATA:1,2019-02-03T01:30:00Z,30.2583,-88.2131,4.428,16.61,1111122 
DISL,ioos:station:DISL:KATA:1,2019-02-03T02:30:00Z,30.2583,-88.2131,4.434,16.58,1111122 
DISL,ioos:station:DISL:KATA:1,2019-02-03T03:30:00Z,30.2583,-88.2131,4.406,16.7,1111122 
DISL,ioos:station:DISL:KATA:1,2019-02-03T04:30:00Z,30.2583,-88.2131,4.375,16.5,1111122 
DISL,ioos:station:DISL:KATA:1,2019-02-03T05:30:00Z,30.2583,-88.2131,4.319,16.83,1111122 
DISL,ioos:station:DISL:KATA:1,2019-02-03T06:30:00Z,30.2583,-88.2131,4.252,17.02,1111122 
DISL,ioos:station:DISL:KATA:1,2019-02-03T07:30:00Z,30.2583,-88.2131,4.159,17.12,1111122 
DISL,ioos:station:DISL:KATA:1,2019-02-03T08:30:00Z,30.2583,-88.2131,4.05,17.07,1111122 
DISL,ioos:station:DISL:KATA:1,2019-02-03T09:30:00Z,30.2583,-88.2131,3.952,17.05,1111122 
DISL,ioos:station:DISL:KATA:1,2019-02-03T10:30:00Z,30.2583,-88.2131,3.882,16.92,1111122 
DISL,ioos:station:DISL:KATA:1,2019-02-03T11:30:00Z,30.2583,-88.2131,3.838,16.95,1111122 
DISL,ioos:station:DISL:KATA:1,2019-02-03T12:30:00Z,30.2583,-88.2131,3.815,17.07,1111122 
DISL,ioos:station:DISL:KATA:1,2019-02-03T13:30:00Z,30.2583,-88.2131,3.822,17.08,1111122 
DISL,ioos:station:DISL:KATA:1,2019-02-03T14:30:00Z,30.2583,-88.2131,3.864,17.11,1111122 
DISL,ioos:station:DISL:KATA:1,2019-02-03T15:30:00Z,30.2583,-88.2131,3.907,17.04,1111122 
DISL,ioos:station:DISL:KATA:1,2019-02-03T16:30:00Z,30.2583,-88.2131,3.95,16.77,1111122 
DISL,ioos:station:DISL:KATA:1,2019-02-03T17:30:00Z,30.2583,-88.2131,3.994,16.81,1111122 
DISL,ioos:station:DISL:KATA:1,2019-02-03T18:30:00Z,30.2583,-88.2131,4.037,16.81,1111122 
DISL,ioos:station:DISL:KATA:1,2019-02-03T19:30:00Z,30.2583,-88.2131,4.076,16.66,1111122 
DISL,ioos:station:DISL:KATA:1,2019-02-03T20:30:00Z,30.2583,-88.2131,4.102,16.33,1111122 
DISL,ioos:station:DISL:KATA:1,2019-02-03T21:30:00Z,30.2583,-88.2131,4.158,16.42,1111122 
DISL,ioos:station:DISL:KATA:1,2019-02-03T22:30:00Z,30.2583,-88.2131,4.222,16.44,1111122 
DISL,ioos:station:DISL:KATA:1,2019-02-03T23:30:00Z,30.2583,-88.2131,4.272,16.38,1111122 
DISL,ioos:station:DISL:KATA:1,2019-02-04T00:30:00Z,30.2583,-88.2131,4.319,16.34,1111122 
DISL,ioos:station:DISL:KATA:1,2019-02-04T01:30:00Z,30.2583,-88.2131,4.38,16.35,1111122 
DISL,ioos:station:DISL:KATA:1,2019-02-04T02:30:00Z,30.2583,-88.2131,4.41,16.3,1111122 
DISL,ioos:station:DISL:KATA:1,2019-02-04T03:30:00Z,30.2583,-88.2131,4.406,16.22,1111122 
DISL,ioos:station:DISL:KATA:1,2019-02-04T04:30:00Z,30.2583,-88.2131,4.371,16.13,1111122 
DISL,ioos:station:DISL:KATA:1,2019-02-04T05:30:00Z,30.2583,-88.2131,4.34,16.26,1111122 
DISL,ioos:station:DISL:KATA:1,2019-02-04T06:30:00Z,30.2583,-88.2131,4.283,16.17,1111122 
DISL,ioos:station:DISL:KATA:1,2019-02-04T07:30:00Z,30.2583,-88.2131,4.203,16.2,1111122 
DISL,ioos:station:DISL:KATA:1,2019-02-04T08:30:00Z,30.2583,-88.2131,4.111,16.12,1111122 
DISL,ioos:station:DISL:KATA:1,2019-02-04T09:30:00Z,30.2583,-88.2131,4.01,15.86,1111122 
DISL,ioos:station:DISL:KATA:1,2019-02-04T10:30:00Z,30.2583,-88.2131,3.929,15.99,1111122 
DISL,ioos:station:DISL:KATA:1,2019-02-04T11:30:00Z,30.2583,-88.2131,3.862,15.77,1111122 
DISL,ioos:station:DISL:KATA:1,2019-02-04T12:30:00Z,30.2583,-88.2131,3.833,15.86,1111122 
DISL,ioos:station:DISL:KATA:1,2019-02-04T13:30:00Z,30.2583,-88.2131,3.866,15.94,1111122 
DISL,ioos:station:DISL:KATA:1,2019-02-04T14:30:00Z,30.2583,-88.2131,3.901,15.93,1111122 
DISL,ioos:station:DISL:KATA:1,2019-02-04T15:30:00Z,30.2583,-88.2131,3.928,15.98,1111122 
DISL,ioos:station:DISL:KATA:1,2019-02-04T16:30:00Z,30.2583,-88.2131,3.94,16.04,1111122 
DISL,ioos:station:DISL:KATA:1,2019-02-04T17:30:00Z,30.2583,-88.2131,3.982,16.04,1111122 
DISL,ioos:station:DISL:KATA:1,2019-02-04T18:30:00Z,30.2583,-88.2131,4.026,16.13,1111122 
DISL,ioos:station:DISL:KATA:1,2019-02-04T19:30:00Z,30.2583,-88.2131,4.074,15.97,1111122 
DISL,ioos:station:DISL:KATA:1,2019-02-04T20:30:00Z,30.2583,-88.2131,4.11,16.08,1111122 
DISL,ioos:station:DISL:KATA:1,2019-02-04T21:30:00Z,30.2583,-88.2131,4.145,15.93,1111122 
DISL,ioos:station:DISL:KATA:1,2019-02-04T22:30:00Z,30.2583,-88.2131,4.191,15.84,1111122 
DISL,ioos:station:DISL:KATA:1,2019-02-04T23:30:00Z,30.2583,-88.2131,4.246,15.84,1111122 
DISL,ioos:station:DISL:KATA:1,2019-02-05T00:30:00Z,30.2583,-88.2131,4.29,15.73,1111122 
DISL,ioos:station:DISL:KATA:1,2019-02-05T01:30:00Z,30.2583,-88.2131,4.34,15.75,1111122 
DISL,ioos:station:DISL:KATA:1,2019-02-05T02:30:00Z,30.2583,-88.2131,4.394,15.69,1111122 
DISL,ioos:station:DISL:KATA:1,2019-02-05T03:30:00Z,30.2583,-88.2131,4.407,15.58,1111122 
DISL,ioos:station:DISL:KATA:1,2019-02-05T04:30:00Z,30.2583,-88.2131,4.379,15.56,1111122 
DISL,ioos:station:DISL:KATA:1,2019-02-05T05:30:00Z,30.2583,-88.2131,4.324,15.43,1111122 
DISL,ioos:station:DISL:KATA:1,2019-02-05T06:30:00Z,30.2583,-88.2131,4.27,15.52,1111122 
DISL,ioos:station:DISL:KATA:1,2019-02-05T07:30:00Z,30.2583,-88.2131,4.208,15.47,1111122 
DISL,ioos:station:DISL:KATA:1,2019-02-05T08:30:00Z,30.2583,-88.2131,4.128,15.43,1111122 
DISL,ioos:station:DISL:KATA:1,2019-02-05T09:30:00Z,30.2583,-88.2131,4.036,15.54,1111122 
DISL,ioos:station:DISL:KATA:1,2019-02-05T10:30:00Z,30.2583,-88.2131,3.946,15.59,1111122 
DISL,ioos:station:DISL:KATA:1,2019-02-05T11:30:00Z,30.2583,-88.2131,3.876,15.57,1111122 
DISL,ioos:station:DISL:KATA:1,2019-02-05T12:30:00Z,30.2583,-88.2131,3.839,15.58,1111122 
DISL,ioos:station:DISL:KATA:1,2019-02-05T13:30:00Z,30.2583,-88.2131,3.844,15.57,1111122 
DISL,ioos:station:DISL:KATA:1,2019-02-05T14:30:00Z,30.2583,-88.2131,3.893,15.48,1111122 
DISL,ioos:station:DISL:KATA:1,2019-02-05T15:30:00Z,30.2583,-88.2131,3.94,15.53,1111122 
DISL,ioos:station:DISL:KATA:1,2019-02-05T16:30:00Z,30.2583,-88.2131,3.954,15.42,1111122 
DISL,ioos:station:DISL:KATA:1,2019-02-05T17:30:00Z,30.2583,-88.2131,3.976,15.45,1111122 
DISL,ioos:station:DISL:KATA:1,2019-02-05T18:30:00Z,30.2583,-88.2131,4.005,15.31,1111122 
DISL,ioos:station:DISL:KATA:1,2019-02-05T19:30:00Z,30.2583,-88.2131,4.081,15.24,1111122 
DISL,ioos:station:DISL:KATA:1,2019-02-05T20:30:00Z,30.2583,-88.2131,4.138,15.27,1111122 
DISL,ioos:station:DISL:KATA:1,2019-02-05T21:30:00Z,30.2583,-88.2131,4.154,15.2,1111122 
DISL,ioos:station:DISL:KATA:1,2019-02-05T22:30:00Z,30.2583,-88.2131,4.17,15.24,1111122 
DISL,ioos:station:DISL:KATA:1,2019-02-05T23:30:00Z,30.2583,-88.2131,4.213,15.4,1111122 
DISL,ioos:station:DISL:KATA:1,2019-02-06T00:30:00Z,30.2583,-88.2131,4.251,15.48,1111122 
DISL,ioos:station:DISL:KATA:1,2019-02-06T01:30:00Z,30.2583,-88.2131,4.298,15.12,1111122 
DISL,ioos:station:DISL:KATA:1,2019-02-06T02:30:00Z,30.2583,-88.2131,4.341,15.33,1111122 
DISL,ioos:station:DISL:KATA:1,2019-02-06T03:30:00Z,30.2583,-88.2131,4.356,15.24,1111122 
DISL,ioos:station:DISL:KATA:1,2019-02-06T04:30:00Z,30.2583,-88.2131,4.346,15.24,1111122 
DISL,ioos:station:DISL:KATA:1,2019-02-06T05:30:00Z,30.2583,-88.2131,4.315,15.25,1111122 
DISL,ioos:station:DISL:KATA:1,2019-02-06T06:30:00Z,30.2583,-88.2131,4.277,15.23,1111122 
DISL,ioos:station:DISL:KATA:1,2019-02-06T07:30:00Z,30.2583,-88.2131,4.231,15.18,1111122 
DISL,ioos:station:DISL:KATA:1,2019-02-06T08:30:00Z,30.2583,-88.2131,4.163,15.18,1111122 
DISL,ioos:station:DISL:KATA:1,2019-02-06T09:30:00Z,30.2583,-88.2131,4.075,15.09,1111122 
DISL,ioos:station:DISL:KATA:1,2019-02-06T10:30:00Z,30.2583,-88.2131,3.985,15.1,1111122 
DISL,ioos:station:DISL:KATA:1,2019-02-06T11:30:00Z,30.2583,-88.2131,3.904,15.2,1111122 
DISL,ioos:station:DISL:KATA:1,2019-02-06T12:30:00Z,30.2583,-88.2131,3.857,15.09,1111122 
DISL,ioos:station:DISL:KATA:1,2019-02-06T13:30:00Z,30.2583,-88.2131,3.856,15.19,1111122 
DISL,ioos:station:DISL:KATA:1,2019-02-06T14:30:00Z,30.2583,-88.2131,3.899,15.15,1111122 
DISL,ioos:station:DISL:KATA:1,2019-02-06T15:30:00Z,30.2583,-88.2131,3.934,15.06,1111122 
DISL,ioos:station:DISL:KATA:1,2019-02-06T16:30:00Z,30.2583,-88.2131,3.952,15.07,1111122 
DISL,ioos:station:DISL:KATA:1,2019-02-06T17:30:00Z,30.2583,-88.2131,3.968,15.31,1111122 
DISL,ioos:station:DISL:KATA:1,2019-02-06T18:30:00Z,30.2583,-88.2131,4.001,15.18,1111122 
DISL,ioos:station:DISL:KATA:1,2019-02-06T19:30:00Z,30.2583,-88.2131,4.042,15.03,1111122 
DISL,ioos:station:DISL:KATA:1,2019-02-06T20:30:00Z,30.2583,-88.2131,4.075,15.1,1111122 
DISL,ioos:station:DISL:KATA:1,2019-02-06T22:30:00Z,30.2583,-88.2131,4.11,15.06,1111122 
DISL,ioos:station:DISL:KATA:1,2019-02-06T23:30:00Z,30.2583,-88.2131,4.111,15.14,1111122 
DISL,ioos:station:DISL:KATA:1,2019-02-07T00:30:00Z,30.2583,-88.2131,4.152,15.12,1111122 
DISL,ioos:station:DISL:KATA:1,2019-02-07T01:30:00Z,30.2583,-88.2131,4.212,15.04,1111122 
DISL,ioos:station:DISL:KATA:1,2019-02-07T02:30:00Z,30.2583,-88.2131,4.269,14.96,1111122 
DISL,ioos:station:DISL:KATA:1,2019-02-07T03:30:00Z,30.2583,-88.2131,4.299,14.89,1111122 
DISL,ioos:station:DISL:KATA:1,2019-02-07T04:30:00Z,30.2583,-88.2131,4.313,14.8,1111122 
DISL,ioos:station:DISL:KATA:1,2019-02-07T05:30:00Z,30.2583,-88.2131,4.304,14.63,1111122 
DISL,ioos:station:DISL:KATA:1,2019-02-07T06:30:00Z,30.2583,-88.2131,4.285,14.64,1111122 
DISL,ioos:station:DISL:KATA:1,2019-02-07T07:30:00Z,30.2583,-88.2131,4.237,14.49,1111122 
DISL,ioos:station:DISL:KATA:1,2019-02-07T08:30:00Z,30.2583,-88.2131,4.179,14.64,1111122 
DISL,ioos:station:DISL:KATA:1,2019-02-07T09:30:00Z,30.2583,-88.2131,4.113,14.53,1111122 
DISL,ioos:station:DISL:KATA:1,2019-02-07T10:30:00Z,30.2583,-88.2131,4.021,14.5,1111122 
DISL,ioos:station:DISL:KATA:1,2019-02-07T11:30:00Z,30.2583,-88.2131,3.941,14.46,1111122 
DISL,ioos:station:DISL:KATA:1,2019-02-07T12:30:00Z,30.2583,-88.2131,3.875,14.25,1111122 
DISL,ioos:station:DISL:KATA:1,2019-02-07T13:30:00Z,30.2583,-88.2131,3.865,14.29,1111122 
DISL,ioos:station:DISL:KATA:1,2019-02-07T14:30:00Z,30.2583,-88.2131,3.877,14.47,1111122 
DISL,ioos:station:DISL:KATA:1,2019-02-07T15:30:00Z,30.2583,-88.2131,3.92,14.42,1111122 
DISL,ioos:station:DISL:KATA:1,2019-02-07T16:30:00Z,30.2583,-88.2131,3.954,14.56,1111122 
DISL,ioos:station:DISL:KATA:1,2019-02-07T17:30:00Z,30.2583,-88.2131,3.976,14.52,1111122 
DISL,ioos:station:DISL:KATA:1,2019-02-07T18:30:00Z,30.2583,-88.2131,3.983,14.51,1111122 
DISL,ioos:station:DISL:KATA:1,2019-02-07T19:30:00Z,30.2583,-88.2131,4.003,14.74,1111122 
DISL,ioos:station:DISL:KATA:1,2019-02-07T20:30:00Z,30.2583,-88.2131,4.026,14.57,1111122 
DISL,ioos:station:DISL:KATA:1,2019-02-07T21:30:00Z,30.2583,-88.2131,4.042,14.64,1111122 
DISL,ioos:station:DISL:KATA:1,2019-02-07T22:30:00Z,30.2583,-88.2131,4.041,14.47,1111122 
DISL,ioos:station:DISL:KATA:1,2019-02-07T23:30:00Z,30.2583,-88.2131,4.084,14.56,1111122 
DISL,ioos:station:DISL:KATA:1,2019-02-08T00:30:00Z,30.2583,-88.2131,4.129,14.36,1111122 
DISL,ioos:station:DISL:KATA:1,2019-02-08T01:30:00Z,30.2583,-88.2131,4.161,14.14,1111122 
DISL,ioos:station:DISL:KATA:1,2019-02-08T02:30:00Z,30.2583,-88.2131,4.195,14.26,1111122 
DISL,ioos:station:DISL:KATA:1,2019-02-08T03:30:00Z,30.2583,-88.2131,4.256,14.2,1111122 
DISL,ioos:station:DISL:KATA:1,2019-02-08T04:30:00Z,30.2583,-88.2131,4.307,14.11,1111122 
DISL,ioos:station:DISL:KATA:1,2019-02-08T05:30:00Z,30.2583,-88.2131,4.311,14.15,1111122 
DISL,ioos:station:DISL:KATA:1,2019-02-08T06:30:00Z,30.2583,-88.2131,4.287,14.31,1111122 
DISL,ioos:station:DISL:KATA:1,2019-02-08T07:30:00Z,30.2583,-88.2131,4.305,14.23,1111122 
DISL,ioos:station:DISL:KATA:1,2019-02-08T08:30:00Z,30.2583,-88.2131,4.21,13.84,1111122 
DISL,ioos:station:DISL:KATA:1,2019-02-08T09:30:00Z,30.2583,-88.2131,4.103,11.69,1111122 
DISL,ioos:station:DISL:KATA:1,2019-02-08T10:30:00Z,30.2583,-88.2131,3.973,11.0,1111122 
DISL,ioos:station:DISL:KATA:1,2019-02-08T11:30:00Z,30.2583,-88.2131,3.873,10.4,1111122 
DISL,ioos:station:DISL:KATA:1,2019-02-08T12:30:00Z,30.2583,-88.2131,3.8,10.07,1111122 
DISL,ioos:station:DISL:KATA:1,2019-02-08T13:30:00Z,30.2583,-88.2131,3.757,9.46,1111122 
DISL,ioos:station:DISL:KATA:1,2019-02-08T14:30:00Z,30.2583,-88.2131,3.775,9.47,1111122 
DISL,ioos:station:DISL:KATA:1,2019-02-08T15:30:00Z,30.2583,-88.2131,3.751,9.72,1111122 
DISL,ioos:station:DISL:KATA:1,2019-02-08T16:30:00Z,30.2583,-88.2131,3.766,9.86,1111122 
DISL,ioos:station:DISL:KATA:1,2019-02-08T17:30:00Z,30.2583,-88.2131,3.757,9.67,1111122 
DISL,ioos:station:DISL:KATA:1,2019-02-08T18:30:00Z,30.2583,-88.2131,3.764,8.69,1111122 
DISL,ioos:station:DISL:KATA:1,2019-02-08T19:30:00Z,30.2583,-88.2131,3.788,8.36,1111122 
DISL,ioos:station:DISL:KATA:1,2019-02-08T20:30:00Z,30.2583,-88.2131,3.822,8.73,1111122 
DISL,ioos:station:DISL:KATA:1,2019-02-08T21:30:00Z,30.2583,-88.2131,3.86,8.92,1111122 
DISL,ioos:station:DISL:KATA:1,2019-02-08T22:30:00Z,30.2583,-88.2131,3.895,8.75,1111122 
DISL,ioos:station:DISL:KATA:1,2019-02-08T23:30:00Z,30.2583,-88.2131,3.903,8.37,1111122 
DISL,ioos:station:DISL:KATA:1,2019-02-09T00:30:00Z,30.2583,-88.2131,3.895,8.09,1111122 
DISL,ioos:station:DISL:KATA:1,2019-02-09T01:30:00Z,30.2583,-88.2131,3.903,8.34,1111122 
DISL,ioos:station:DISL:KATA:1,2019-02-09T02:30:00Z,30.2583,-88.2131,3.899,7.64,1111122 
DISL,ioos:station:DISL:KATA:1,2019-02-09T03:30:00Z,30.2583,-88.2131,3.878,7.08,1111122 
DISL,ioos:station:DISL:KATA:1,2019-02-09T04:30:00Z,30.2583,-88.2131,3.903,6.25,1111122 
DISL,ioos:station:DISL:KATA:1,2019-02-09T05:30:00Z,30.2583,-88.2131,3.93,5.88,1111122 
DISL,ioos:station:DISL:KATA:1,2019-02-09T06:30:00Z,30.2583,-88.2131,3.91,5.55,1111122 
DISL,ioos:station:DISL:KATA:1,2019-02-09T07:30:00Z,30.2583,-88.2131,3.932,5.47,1111122 
DISL,ioos:station:DISL:KATA:1,2019-02-09T08:30:00Z,30.2583,-88.2131,3.902,5.37,1111122 
DISL,ioos:station:DISL:KATA:1,2019-02-09T09:30:00Z,30.2583,-88.2131,3.923,5.07,1111122 
DISL,ioos:station:DISL:KATA:1,2019-02-09T10:30:00Z,30.2583,-88.2131,3.913,4.73,1111122 
DISL,ioos:station:DISL:KATA:1,2019-02-09T11:30:00Z,30.2583,-88.2131,3.864,4.18,1111122 
DISL,ioos:station:DISL:KATA:1,2019-02-09T12:30:00Z,30.2583,-88.2131,3.812,4.17,1111122 
DISL,ioos:station:DISL:KATA:1,2019-02-09T13:30:00Z,30.2583,-88.2131,3.822,4.06,1111122 
DISL,ioos:station:DISL:KATA:1,2019-02-09T14:30:00Z,30.2583,-88.2131,3.843,3.92,1111122 
DISL,ioos:station:DISL:KATA:1,2019-02-09T15:30:00Z,30.2583,-88.2131,3.867,3.82,1111122 
DISL,ioos:station:DISL:KATA:1,2019-02-09T16:30:00Z,30.2583,-88.2131,3.859,3.35,1111122 
DISL,ioos:station:DISL:KATA:1,2019-02-09T17:30:00Z,30.2583,-88.2131,3.854,3.2,1111122 
DISL,ioos:station:DISL:KATA:1,2019-02-09T18:30:00Z,30.2583,-88.2131,3.881,3.11,1111122 
DISL,ioos:station:DISL:KATA:1,2019-02-09T19:30:00Z,30.2583,-88.2131,3.947,3.22,1111122 
DISL,ioos:station:DISL:KATA:1,2019-02-09T20:30:00Z,30.2583,-88.2131,3.993,3.72,1111122 
DISL,ioos:station:DISL:KATA:1,2019-02-09T21:30:00Z,30.2583,-88.2131,4.026,4.08,1111122 
DISL,ioos:station:DISL:KATA:1,2019-02-09T22:30:00Z,30.2583,-88.2131,4.005,3.9,1111122 
DISL,ioos:station:DISL:KATA:1,2019-02-09T23:30:00Z,30.2583,-88.2131,3.949,4.16,1111122 
DISL,ioos:station:DISL:KATA:1,2019-02-10T00:30:00Z,30.2583,-88.2131,3.935,4.25,1111122 
DISL,ioos:station:DISL:KATA:1,2019-02-10T01:30:00Z,30.2583,-88.2131,3.945,4.48,1111122 
DISL,ioos:station:DISL:KATA:1,2019-02-10T02:30:00Z,30.2583,-88.2131,3.973,4.92,1111122 
DISL,ioos:station:DISL:KATA:1,2019-02-10T03:30:00Z,30.2583,-88.2131,3.989,5.48,1111122 
DISL,ioos:station:DISL:KATA:1,2019-02-10T04:30:00Z,30.2583,-88.2131,3.993,8.32,1111122 
DISL,ioos:station:DISL:KATA:1,2019-02-10T05:30:00Z,30.2583,-88.2131,3.964,10.27,1111122 
DISL,ioos:station:DISL:KATA:1,2019-02-10T06:30:00Z,30.2583,-88.2131,3.953,11.49,1111122 
DISL,ioos:station:DISL:KATA:1,2019-02-10T07:30:00Z,30.2583,-88.2131,3.963,13.56,1111122 
DISL,ioos:station:DISL:KATA:1,2019-02-10T08:30:00Z,30.2583,-88.2131,3.979,14.65,1111122 
DISL,ioos:station:DISL:KATA:1,2019-02-10T09:30:00Z,30.2583,-88.2131,4.009,15.19,1111122 
DISL,ioos:station:DISL:KATA:1,2019-02-10T10:30:00Z,30.2583,-88.2131,4.024,15.83,1111122 
DISL,ioos:station:DISL:KATA:1,2019-02-10T11:30:00Z,30.2583,-88.2131,3.984,16.55,1111122 
DISL,ioos:station:DISL:KATA:1,2019-02-10T12:30:00Z,30.2583,-88.2131,3.921,16.66,1111122 
DISL,ioos:station:DISL:KATA:1,2019-02-10T13:30:00Z,30.2583,-88.2131,3.897,16.96,1111122 
DISL,ioos:station:DISL:KATA:1,2019-02-10T14:30:00Z,30.2583,-88.2131,3.926,17.28,1111122 
DISL,ioos:station:DISL:KATA:1,2019-02-10T15:30:00Z,30.2583,-88.2131,3.983,17.58,1111122 
DISL,ioos:station:DISL:KATA:1,2019-02-10T16:30:00Z,30.2583,-88.2131,4.011,17.47,1111122 
DISL,ioos:station:DISL:KATA:1,2019-02-10T17:30:00Z,30.2583,-88.2131,4.041,17.33,1111122 
DISL,ioos:station:DISL:KATA:1,2019-02-10T18:30:00Z,30.2583,-88.2131,4.055,17.19,1111122 
DISL,ioos:station:DISL:KATA:1,2019-02-10T19:30:00Z,30.2583,-88.2131,4.074,17.12,1111122 
DISL,ioos:station:DISL:KATA:1,2019-02-10T20:30:00Z,30.2583,-88.2131,4.075,16.96,1111122 
DISL,ioos:station:DISL:KATA:1,2019-02-10T21:30:00Z,30.2583,-88.2131,4.075,16.95,1111122 
DISL,ioos:station:DISL:KATA:1,2019-02-10T22:30:00Z,30.2583,-88.2131,4.099,16.94,1111122 
DISL,ioos:station:DISL:KATA:1,2019-02-10T23:30:00Z,30.2583,-88.2131,4.102,16.95,1111122 
DISL,ioos:station:DISL:KATA:1,2019-02-11T00:30:00Z,30.2583,-88.2131,4.101,16.98,1111122 
DISL,ioos:station:DISL:KATA:1,2019-02-11T01:30:00Z,30.2583,-88.2131,4.079,17.05,1111122 
DISL,ioos:station:DISL:KATA:1,2019-02-11T02:30:00Z,30.2583,-88.2131,4.057,16.97,1111122 
DISL,ioos:station:DISL:KATA:1,2019-02-11T03:30:00Z,30.2583,-88.2131,4.071,16.91,1111122 
DISL,ioos:station:DISL:KATA:1,2019-02-11T04:30:00Z,30.2583,-88.2131,4.094,17.01,1111122 
DISL,ioos:station:DISL:KATA:1,2019-02-11T06:00:00Z,30.2583,-88.2131,4.105,16.94,1111122 
DISL,ioos:station:DISL:KATA:1,2019-02-11T06:30:00Z,30.2583,-88.2131,4.103,16.89,1111122 
DISL,ioos:station:DISL:KATA:1,2019-02-11T07:30:00Z,30.2583,-88.2131,4.085,16.85,1111122 
DISL,ioos:station:DISL:KATA:1,2019-02-11T08:30:00Z,30.2583,-88.2131,4.067,16.77,1111122 
DISL,ioos:station:DISL:KATA:1,2019-02-11T09:30:00Z,30.2583,-88.2131,4.064,16.72,1111122 
DISL,ioos:station:DISL:KATA:1,2019-02-11T10:30:00Z,30.2583,-88.2131,4.053,16.67,1111122 
DISL,ioos:station:DISL:KATA:1,2019-02-11T11:30:00Z,30.2583,-88.2131,4.046,16.7,1111122 
DISL,ioos:station:DISL:KATA:1,2019-02-11T12:30:00Z,30.2583,-88.2131,4.037,16.8,1111122 
DISL,ioos:station:DISL:KATA:1,2019-02-11T13:30:00Z,30.2583,-88.2131,4.053,16.73,1111122 
DISL,ioos:station:DISL:KATA:1,2019-02-11T14:30:00Z,30.2583,-88.2131,4.077,16.78,1111122 
DISL,ioos:station:DISL:KATA:1,2019-02-11T15:30:00Z,30.2583,-88.2131,4.095,16.75,1111122 
DISL,ioos:station:DISL:KATA:1,2019-02-11T16:30:00Z,30.2583,-88.2131,4.114,16.75,1111122 
DISL,ioos:station:DISL:KATA:1,2019-02-11T17:30:00Z,30.2583,-88.2131,4.141,16.79,1111122 
DISL,ioos:station:DISL:KATA:1,2019-02-11T18:30:00Z,30.2583,-88.2131,4.177,16.93,1111122 
DISL,ioos:station:DISL:KATA:1,2019-02-11T19:30:00Z,30.2583,-88.2131,4.229,17.01,1111122 
DISL,ioos:station:DISL:KATA:1,2019-02-11T20:30:00Z,30.2583,-88.2131,4.208,17.02,1111122 
DISL,ioos:station:DISL:KATA:1,2019-02-11T21:30:00Z,30.2583,-88.2131,4.195,16.94,1111122 
DISL,ioos:station:DISL:KATA:1,2019-02-11T22:30:00Z,30.2583,-88.2131,4.178,17.01,1111122 
DISL,ioos:station:DISL:KATA:1,2019-02-11T23:30:00Z,30.2583,-88.2131,4.175,16.93,1111122 
DISL,ioos:station:DISL:KATA:1,2019-02-12T00:30:00Z,30.2583,-88.2131,4.165,16.94,1111122 
DISL,ioos:station:DISL:KATA:1,2019-02-12T01:30:00Z,30.2583,-88.2131,4.116,16.84,1111122 
DISL,ioos:station:DISL:KATA:1,2019-02-12T02:30:00Z,30.2583,-88.2131,4.08,16.73,1111122 
DISL,ioos:station:DISL:KATA:1,2019-02-12T03:30:00Z,30.2583,-88.2131,4.061,16.74,1111122 
DISL,ioos:station:DISL:KATA:1,2019-02-12T04:30:00Z,30.2583,-88.2131,4.063,16.7,1111122 
DISL,ioos:station:DISL:KATA:1,2019-02-12T05:30:00Z,30.2583,-88.2131,4.085,16.71,1111122 